TimeEST,TemperatureF,Dew PointF,Humidity,Sea Level PressureIn,VisibilityMPH,Wind Direction,Wind SpeedMPH,Gust SpeedMPH,PrecipitationIn,Events,Conditions,WindDirDegrees,DateUTC
12:18 AM,19.4,19.4,100,30.42,0.2,Calm,Calm,-,N/A,Fog,Light Freezing Fog,0,2013-01-19 05:18:00
12:36 AM,19.4,19.4,100,30.42,0.8,Calm,Calm,-,N/A,,Mostly Cloudy,0,2013-01-19 05:36:00
12:56 AM,17.6,17.6,100,30.42,7.0,Calm,Calm,-,N/A,,Clear,0,2013-01-19 05:56:00
1:16 AM,19.4,19.4,100,30.41,0.2,Calm,Calm,-,N/A,Fog,Light Freezing Fog,0,2013-01-19 06:16:00
1:36 AM,17.6,17.6,100,30.41,4.0,Calm,Calm,-,N/A,,Scattered Clouds,0,2013-01-19 06:36:00
1:56 AM,17.6,17.6,100,30.41,4.0,Calm,Calm,-,N/A,,Clear,0,2013-01-19 06:56:00
2:16 AM,17.6,17.6,100,30.41,0.5,Calm,Calm,-,N/A,Fog,Light Freezing Fog,0,2013-01-19 07:16:00
2:56 AM,17.6,17.6,100,30.41,-9999.0,Calm,Calm,-,N/A,Fog,Light Freezing Fog,0,2013-01-19 07:56:00
3:17 AM,17.6,17.6,100,30.40,4.0,Calm,Calm,-,N/A,,Scattered Clouds,0,2013-01-19 08:17:00
3:36 AM,17.6,17.6,100,30.40,2.0,Calm,Calm,-,N/A,,Clear,0,2013-01-19 08:36:00
4:38 AM,15.8,15.8,100,30.38,7.0,Calm,Calm,-,N/A,,Clear,0,2013-01-19 09:38:00
4:58 AM,15.8,15.8,100,30.38,5.0,Calm,Calm,-,N/A,,Clear,0,2013-01-19 09:58:00
5:16 AM,15.8,15.8,100,30.38,7.0,Calm,Calm,-,N/A,,Clear,0,2013-01-19 10:16:00
5:38 AM,15.8,15.8,100,30.38,7.0,Calm,Calm,-,N/A,,Clear,0,2013-01-19 10:38:00
5:57 AM,15.8,15.8,100,30.38,7.0,Calm,Calm,-,N/A,,Clear,0,2013-01-19 10:57:00
6:16 AM,15.8,15.8,100,30.38,7.0,Calm,Calm,-,N/A,,Clear,0,2013-01-19 11:16:00
6:36 AM,15.8,15.8,100,30.38,7.0,Calm,Calm,-,N/A,,Clear,0,2013-01-19 11:36:00
7:17 AM,15.8,15.8,100,30.38,7.0,Calm,Calm,-,N/A,,Clear,0,2013-01-19 12:17:00
7:36 AM,15.8,15.8,100,30.38,7.0,Calm,Calm,-,N/A,,Clear,0,2013-01-19 12:36:00
7:56 AM,15.8,15.8,100,30.38,7.0,Calm,Calm,-,N/A,,Clear,0,2013-01-19 12:56:00
8:17 AM,15.8,15.8,100,30.39,7.0,Calm,Calm,-,N/A,,Clear,0,2013-01-19 13:17:00
8:36 AM,19.4,19.4,100,30.39,5.0,Calm,Calm,-,N/A,,Clear,0,2013-01-19 13:36:00
8:56 AM,24.8,24.8,100,30.39,10.0,Calm,Calm,-,N/A,,Clear,0,2013-01-19 13:56:00
9:18 AM,24.8,24.8,100,30.40,10.0,Calm,Calm,-,N/A,,Clear,0,2013-01-19 14:18:00
9:40 AM,28.4,28.4,100,30.40,10.0,Calm,Calm,-,N/A,,Clear,0,2013-01-19 14:40:00
9:57 AM,30.2,30.2,100,30.40,10.0,Calm,Calm,-,N/A,,Clear,0,2013-01-19 14:57:00
10:36 AM,33.8,30.2,87,30.38,10.0,WNW,3.5,-,0.01,,Clear,290,2013-01-19 15:36:00
10:56 AM,35.6,28.4,75,30.38,10.0,West,3.5,-,N/A,,Clear,280,2013-01-19 15:56:00
11:18 AM,35.6,30.2,81,30.36,10.0,Calm,Calm,-,0.01,,Clear,0,2013-01-19 16:18:00
11:59 AM,37.4,30.2,75,30.33,10.0,WNW,4.6,-,0.01,,Clear,300,2013-01-19 16:59:00
12:18 PM,39.2,30.2,70,30.31,10.0,Calm,Calm,-,0.02,,Clear,0,2013-01-19 17:18:00
12:36 PM,37.4,30.2,75,30.29,10.0,NW,4.6,-,0.04,,Clear,320,2013-01-19 17:36:00
12:59 PM,37.4,32.0,81,30.27,10.0,NW,4.6,-,N/A,,Clear,310,2013-01-19 17:59:00
1:17 PM,39.2,32.0,75,30.26,10.0,NW,3.5,-,0.02,,Clear,320,2013-01-19 18:17:00
1:36 PM,41.0,32.0,70,30.25,10.0,Calm,Calm,-,0.04,,Clear,0,2013-01-19 18:36:00
1:58 PM,42.8,32.0,66,30.24,10.0,Calm,Calm,-,N/A,,Clear,0,2013-01-19 18:58:00
2:16 PM,44.6,33.8,66,30.23,10.0,WNW,3.5,-,0.02,,Clear,300,2013-01-19 19:16:00
2:56 PM,46.4,32.0,57,30.22,10.0,Calm,Calm,-,N/A,,Clear,0,2013-01-19 19:56:00
3:16 PM,46.4,30.2,53,30.21,10.0,SW,5.8,-,0.02,,Clear,230,2013-01-19 20:16:00
4:16 PM,46.4,28.4,50,30.18,10.0,Calm,Calm,-,0.02,,Clear,0,2013-01-19 21:16:00
4:38 PM,46.4,26.6,46,30.18,10.0,WSW,4.6,-,0.03,,Clear,240,2013-01-19 21:38:00
4:58 PM,44.6,26.6,49,30.17,10.0,SW,4.6,-,N/A,,Clear,220,2013-01-19 21:58:00
5:16 PM,44.6,24.8,46,30.17,10.0,SW,6.9,-,N/A,,Clear,220,2013-01-19 22:16:00
5:38 PM,42.8,24.8,49,30.17,10.0,SW,8.1,-,N/A,,Clear,220,2013-01-19 22:38:00
5:58 PM,42.8,24.8,49,30.17,10.0,SW,9.2,-,N/A,,Clear,220,2013-01-19 22:58:00
6:18 PM,42.8,23.0,46,30.16,10.0,SW,8.1,-,N/A,,Clear,230,2013-01-19 23:18:00
6:37 PM,42.8,24.8,49,30.16,10.0,SW,5.8,-,N/A,,Clear,230,2013-01-19 23:37:00
6:56 PM,42.8,24.8,49,30.17,10.0,SW,5.8,-,N/A,,Clear,230,2013-01-19 23:56:00
7:16 PM,41.0,24.8,53,30.17,10.0,West,3.5,-,N/A,,Clear,260,2013-01-20 00:16:00
7:58 PM,33.8,26.6,75,30.16,10.0,Calm,Calm,-,N/A,,Clear,0,2013-01-20 00:58:00
8:17 PM,33.8,26.6,75,30.16,10.0,Calm,Calm,-,N/A,,Clear,0,2013-01-20 01:17:00
8:36 PM,32.0,28.4,87,30.15,10.0,Calm,Calm,-,N/A,,Clear,0,2013-01-20 01:36:00
8:58 PM,30.2,26.6,86,30.15,10.0,North,3.5,-,N/A,,Clear,360,2013-01-20 01:58:00
9:36 PM,30.2,26.6,86,30.14,10.0,Calm,Calm,-,N/A,,Clear,0,2013-01-20 02:36:00
9:57 PM,30.2,24.8,80,30.13,10.0,Calm,Calm,-,N/A,,Clear,0,2013-01-20 02:57:00
10:16 PM,30.2,26.6,86,30.13,10.0,NNW,8.1,-,N/A,,Clear,330,2013-01-20 03:16:00
10:37 PM,32.0,26.6,80,30.12,10.0,NW,4.6,-,N/A,,Clear,320,2013-01-20 03:37:00
10:58 PM,30.2,26.6,86,30.12,10.0,NNW,3.5,-,N/A,,Clear,330,2013-01-20 03:58:00
11:18 PM,32.0,26.6,80,30.11,10.0,Calm,Calm,-,N/A,,Clear,0,2013-01-20 04:18:00
11:36 PM,33.8,26.6,75,30.10,10.0,WNW,4.6,-,N/A,,Clear,290,2013-01-20 04:36:00
11:56 PM,35.6,28.4,75,30.10,10.0,WNW,5.8,-,N/A,,Clear,300,2013-01-20 04:56:00